Location: Penum?ka
(16.4840°N, 80.5772°E)
Time: 15:10:04
(UTC+00:00)

SPOT 1/Viking Rocket - Pass Details

Date: 19 May 2025
Orbit: 772 x 790 km, 98.2° (Epoch: 17 June)

Event Time Altitude Azimuth Distance (km) Brightness Sun altitude
Rises 13:18:25 0° 157° (SSE) 3,267 6.3 -4.4°
Reaches altitude 10° 13:20:47 10° 153° (SSE) 2,337 5.6 -4.9°
Maximum altitude 13:25:48 54° 76° (ENE) 947 3.7 -6.0°
Drops below altitude 10° 13:30:48 10° 0° (N) 2,330 6.3 -7.1°
Sets 13:33:09 0° 356° (N) 3,256 7.2 -7.6°
